QPF
0.00 0.00 0.00 0.00 0.00 0.00 0.00 0.00 0.00 0.00 0.00 0.00 0.00 0.00 0.00 0.00 0.00 0.00 0.01 0.01 0.01 0.01 0.01 0.01 0.01 0.01 0.01 0.01 0.00 0.01 0.01 0.01 0.02 0.02 0.02 0.02 0.02 0.02 0.02 0.02 0.02 0.04 0.04 0.04
0.00 0.00 0.00 0.00 0.00 0.00 0.00 0.00 0.00 0.00 0.00 0.00 0.00 0.00 0.01 0.00 0.00 0.01 0.01 0.01 0.00 0.00 0.01 0.01 0.01 0.01 0.01 0.00 0.00 0.00 0.01 0.02 0.03 0.04 0.04 0.03 0.04 0.04 0.04 0.04 0.04 0.04 0.04 0.05
0.00 0.00 0.00 0.00 0.00 0.00 0.00 0.00 0.00 0.00 0.00 0.00 0.00 0.00 0.01 0.01 0.01 0.01 0.01 0.01 0.00 0.01 0.01 0.01 0.01 0.01 0.01 0.01 0.00 0.00 0.01 0.02 0.03 0.04 0.05 0.06 0.05 0.06 0.07 0.08 0.06 0.05 0.05 0.05
0.00 0.00 0.00 0.00 0.00 0.00 0.00 0.00 0.00 0.00 0.00 0.01 0.01 0.01 0.01 0.01 0.01 0.01 0.01 0.01 0.01 0.01 0.01 0.01 0.01 0.01 0.01 0.01 0.01 0.01 0.01 0.01 0.01 0.02 0.03 0.05 0.05 0.06 0.06 0.06 0.05 0.06 0.05 0.04
0.00 0.00 0.00 0.01 0.01 0.01 0.01 0.00 0.01 0.00 0.01 0.01 0.01 0.01 0.01 0.01 0.01 0.02 0.02 0.02 0.02 0.02 0.02 0.02 0.02 0.02 0.01 0.01 0.01 0.01 0.01 0.01 0.02 0.03 0.04 0.04 0.04 0.04 0.04 0.05 0.05 0.04 0.04 0.04
0.00 0.01 0.01 0.02 0.02 0.03 0.02 0.02 0.02 0.01 0.01 0.01 0.02 0.02 0.02 0.02 0.03 0.04 0.03 0.04 0.03 0.02 0.02 0.02 0.02 0.02 0.02 0.02 0.01 0.01 0.02 0.02 0.04 0.06 0.06 0.06 0.05 0.05 0.05 0.05 0.04 0.04 0.03 0.03
0.01 0.01 0.01 0.01 0.02 0.03 0.06 0.09 0.05 0.05 0.03 0.02 0.02 0.02 0.01 0.02 0.04 0.05 0.03 0.03 0.03 0.02 0.01 0.02 0.02 0.02 0.03 0.03 0.02 0.02 0.03 0.04 0.04 0.05 0.06 0.06 0.06 0.05 0.05 0.05 0.04 0.04 0.03 0.03
0.02 0.02 0.02 0.02 0.02 0.04 0.04 0.05 0.03 0.03 0.02 0.02 0.02 0.02 0.02 0.02 0.02 0.03 0.02 0.02 0.02 0.02 0.02 0.02 0.02 0.04 0.06 0.07 0.06 0.05 0.04 0.04 0.04 0.05 0.05 0.07 0.07 0.06 0.05 0.05 0.04 0.03 0.03 0.04
0.02 0.03 0.03 0.02 0.02 0.02 0.02 0.01 0.01 0.01 0.01 0.01 0.02 0.02 0.02 0.02 0.01 0.02 0.02 0.02 0.02 0.02 0.02 0.02 0.02 0.03 0.04 0.05 0.05 0.05 0.05 0.04 0.04 0.05 0.05 0.06 0.07 0.06 0.06 0.06 0.05 0.04 0.03 0.04
0.03 0.04 0.04 0.03 0.01 0.01 0.01 0.01 0.01 0.01 0.01 0.02 0.02 0.02 0.02 0.02 0.01 0.01 0.02 0.02 0.02 0.02 0.02 0.03 0.03 0.03 0.04 0.04 0.04 0.04 0.03 0.03 0.04 0.04 0.04 0.05 0.05 0.05 0.04 0.04 0.03 0.02 0.02 0.02
0.03 0.02 0.03 0.02 0.01 0.01 0.01 0.01 0.01 0.01 0.02 0.02 0.02 0.02 0.01 0.01 0.01 0.01 0.01 0.02 0.02 0.02 0.03 0.04 0.05 0.05 0.05 0.05 0.05 0.04 0.04 0.03 0.03 0.03 0.03 0.04 0.04 0.05 0.04 0.03 0.03 0.02 0.02 0.02
0.04 0.02 0.03 0.03 0.02 0.01 0.02 0.02 0.02 0.01 0.02 0.02 0.02 0.02 0.01 0.01 0.02 0.02 0.02 0.02 0.02 0.03 0.03 0.04 0.04 0.05 0.05 0.05 0.05 0.05 0.04 0.03 0.03 0.02 0.03 0.03 0.04 0.04 0.05 0.05 0.05 0.04 0.04 0.03
0.04 0.03 0.03 0.03 0.03 0.02 0.03 0.03 0.03 0.02 0.02 0.02 0.02 0.02 0.02 0.02 0.02 0.02 0.02 0.03 0.03 0.04 0.03 0.03 0.04 0.04 0.04 0.04 0.05 0.06 0.06 0.05 0.04 0.03 0.02 0.03 0.04 0.04 0.05 0.05 0.05 0.05 0.04 0.04
0.04 0.03 0.02 0.02 0.03 0.03 0.04 0.05 0.04 0.04 0.03 0.03 0.03 0.03 0.03 0.02 0.02 0.02 0.03 0.03 0.04 0.05 0.04 0.04 0.04 0.04 0.04 0.05 0.06 0.06 0.07 0.07 0.06 0.05 0.05 0.05 0.05 0.04 0.05 0.05 0.05 0.05 0.05 0.05
0.03 0.03 0.02 0.02 0.03 0.04 0.04 0.05 0.06 0.05 0.04 0.04 0.05 0.04 0.02 0.02 0.02 0.02 0.02 0.03 0.04 0.05 0.06 0.04 0.05 0.07 0.07 0.07 0.07 0.06 0.05 0.05 0.04 0.04 0.04 0.05 0.05 0.04 0.04 0.05 0.06 0.06 0.06 0.06
0.04 0.05 0.04 0.02 0.03 0.03 0.03 0.04 0.05 0.06 0.07 0.07 0.06 0.04 0.03 0.02 0.02 0.02 0.02 0.03 0.05 0.06 0.06 0.05 0.06 0.07 0.05 0.05 0.04 0.04 0.03 0.03 0.03 0.02 0.02 0.03 0.05 0.06 0.06 0.06 0.07 0.08 0.08 0.08
0.04 0.05 0.05 0.04 0.04 0.03 0.03 0.03 0.04 0.07 0.09 0.08 0.06 0.04 0.03 0.04 0.04 0.04 0.04 0.04 0.05 0.06 0.06 0.06 0.07 0.06 0.04 0.03 0.03 0.03 0.02 0.02 0.02 0.02 0.03 0.03 0.04 0.06 0.09 0.09 0.09 0.09 0.09 0.10
0.05 0.05 0.05 0.03 0.02 0.02 0.03 0.05 0.07 0.08 0.08 0.08 0.06 0.05 0.05 0.07 0.07 0.07 0.07 0.05 0.05 0.05 0.06 0.06 0.06 0.04 0.03 0.03 0.04 0.05 0.04 0.02 0.02 0.02 0.03 0.02 0.03 0.04 0.05 0.07 0.07 0.06 0.06 0.06
0.03 0.04 0.03 0.03 0.02 0.03 0.05 0.06 0.07 0.07 0.08 0.08 0.06 0.06 0.07 0.09 0.09 0.09 0.08 0.08 0.07 0.08 0.08 0.06 0.04 0.02 0.02 0.03 0.04 0.05 0.05 0.05 0.04 0.03 0.03 0.03 0.03 0.03 0.03 0.04 0.04 0.05 0.04 0.03
0.02 0.03 0.03 0.03 0.03 0.03 0.04 0.05 0.04 0.05 0.05 0.05 0.06 0.07 0.08 0.08 0.07 0.07 0.07 0.06 0.06 0.06 0.06 0.05 0.04 0.05 0.06 0.07 0.07 0.07 0.06 0.06 0.05 0.03 0.03 0.03 0.03 0.04 0.04 0.04 0.03 0.04 0.04 0.04
0.03 0.03 0.03 0.03 0.03 0.03 0.03 0.04 0.03 0.04 0.05 0.06 0.07 0.07 0.06 0.05 0.04 0.03 0.03 0.03 0.04 0.04 0.05 0.05 0.06 0.07 0.08 0.09 0.07 0.05 0.04 0.03 0.03 0.03 0.03 0.04 0.05 0.05 0.04 0.03 0.03 0.03 0.03 0.03
0.02 0.02 0.02 0.01 0.01 0.02 0.02 0.02 0.02 0.02 0.03 0.03 0.02 0.02 0.02 0.02 0.02 0.02 0.02 0.02 0.03 0.03 0.03 0.04 0.05 0.05 0.05 0.04 0.04 0.04 0.04 0.04 0.04 0.05 0.05 0.06 0.06 0.05 0.03 0.02 0.02 0.02 0.03 0.03
0.02 0.01 0.01 0.01 0.01 0.01 0.01 0.01 0.01 0.01 0.01 0.02 0.01 0.01 0.02 0.02 0.01 0.02 0.02 0.01 0.01 0.01 0.01 0.02 0.02 0.03 0.03 0.03 0.03 0.04 0.04 0.04 0.04 0.05 0.05 0.05 0.05 0.04 0.03 0.03 0.02 0.02 0.02 0.03
0.02 0.02 0.02 0.02 0.03 0.02 0.02 0.01 0.02 0.02 0.01 0.01 0.01 0.01 0.01 0.01 0.02 0.02 0.02 0.01 0.01 0.01 0.01 0.01 0.01 0.01 0.01 0.02 0.02 0.02 0.02 0.02 0.02 0.02 0.02 0.02 0.03 0.03 0.02 0.02 0.02 0.02 0.02 0.03
0.02 0.02 0.02 0.02 0.02 0.02 0.02 0.01 0.01 0.01 0.01 0.01 0.01 0.01 0.01 0.01 0.01 0.01 0.01 0.01 0.01 0.02 0.01 0.01 0.01 0.01 0.01 0.01 0.01 0.01 0.00 0.01 0.01 0.01 0.01 0.01 0.02 0.02 0.02 0.02 0.02 0.02 0.02 0.02
0.02 0.02 0.02 0.02 0.02 0.01 0.01 0.01 0.01 0.02 0.02 0.01 0.01 0.01 0.01 0.01 0.01 0.01 0.01 0.01 0.01 0.01 0.01 0.00 0.01 0.00 0.00 0.00 0.01 0.01 0.01 0.01 0.01 0.01 0.02 0.02 0.02 0.02 0.02 0.02 0.02 0.02 0.02 0.02
0.02 0.02 0.02 0.01 0.01 0.01 0.01 0.01 0.02 0.02 0.01 0.01 0.01 0.01 0.01 0.01 0.01 0.01 0.01 0.01 0.01 0.00 0.01 0.01 0.01 0.01 0.00 0.00 0.00 0.01 0.01 0.01 0.01 0.01 0.01 0.02 0.01 0.01 0.01 0.01 0.02 0.02 0.03 0.03
MSLP
1009.28 1009.39 1009.48 1009.55 1009.58 1009.56 1009.48 1009.35 1009.18 1009.01 1008.87 1008.82 1008.88 1009.09 1009.44 1009.93 1010.51 1011.14 1011.77 1012.33 1012.79 1013.12 1013.32 1013.42 1013.43 1013.40 1013.36 1013.33 1013.34 1013.36 1013.40 1013.42 1013.40 1013.33 1013.19 1012.98 1012.72 1012.44 1012.16 1011.92 1011.72 1011.56 1011.46 1011.38
1009.59 1009.64 1009.65 1009.62 1009.55 1009.43 1009.27 1009.10 1008.92 1008.78 1008.70 1008.72 1008.86 1009.13 1009.53 1010.04 1010.61 1011.20 1011.77 1012.27 1012.67 1012.96 1013.14 1013.24 1013.29 1013.31 1013.34 1013.39 1013.45 1013.53 1013.60 1013.63 1013.60 1013.50 1013.31 1013.06 1012.76 1012.44 1012.13 1011.86 1011.64 1011.49 1011.39 1011.31
1009.86 1009.86 1009.80 1009.68 1009.52 1009.33 1009.12 1008.91 1008.74 1008.62 1008.59 1008.68 1008.88 1009.21 1009.64 1010.15 1010.70 1011.24 1011.74 1012.17 1012.50 1012.74 1012.90 1013.01 1013.08 1013.15 1013.23 1013.34 1013.45 1013.57 1013.65 1013.68 1013.63 1013.50 1013.28 1012.98 1012.65 1012.30 1011.97 1011.69 1011.48 1011.33 1011.24 1011.19
1010.09 1010.04 1009.91 1009.73 1009.49 1009.23 1008.98 1008.75 1008.57 1008.49 1008.50 1008.64 1008.89 1009.26 1009.70 1010.20 1010.71 1011.20 1011.63 1011.99 1012.27 1012.47 1012.61 1012.71 1012.81 1012.91 1013.04 1013.18 1013.33 1013.46 1013.55 1013.56 1013.49 1013.33 1013.07 1012.75 1012.40 1012.04 1011.71 1011.44 1011.23 1011.10 1011.03 1010.99
1010.24 1010.14 1009.96 1009.71 1009.43 1009.12 1008.82 1008.57 1008.40 1008.33 1008.38 1008.55 1008.83 1009.22 1009.67 1010.15 1010.62 1011.06 1011.44 1011.75 1011.98 1012.14 1012.27 1012.38 1012.49 1012.62 1012.77 1012.94 1013.10 1013.23 1013.31 1013.30 1013.21 1013.02 1012.74 1012.41 1012.05 1011.69 1011.38 1011.12 1010.94 1010.83 1010.77 1010.74
1010.30 1010.15 1009.93 1009.63 1009.30 1008.95 1008.63 1008.37 1008.20 1008.14 1008.20 1008.39 1008.69 1009.08 1009.53 1009.99 1010.44 1010.84 1011.18 1011.45 1011.64 1011.79 1011.91 1012.02 1012.14 1012.29 1012.45 1012.62 1012.79 1012.91 1012.97 1012.94 1012.83 1012.62 1012.33 1012.00 1011.65 1011.31 1011.02 1010.79 1010.64 1010.54 1010.50 1010.48
1010.26 1010.07 1009.80 1009.47 1009.11 1008.75 1008.41 1008.14 1007.97 1007.91 1007.98 1008.18 1008.49 1008.88 1009.32 1009.77 1010.19 1010.57 1010.88 1011.12 1011.30 1011.44 1011.55 1011.67 1011.79 1011.94 1012.11 1012.27 1012.42 1012.53 1012.57 1012.53 1012.39 1012.18 1011.90 1011.58 1011.25 1010.95 1010.69 1010.50 1010.36 1010.29 1010.26 1010.24
1010.11 1009.88 1009.59 1009.25 1008.88 1008.51 1008.17 1007.90 1007.74 1007.68 1007.76 1007.96 1008.27 1008.66 1009.08 1009.52 1009.93 1010.28 1010.58 1010.81 1010.98 1011.11 1011.22 1011.33 1011.46 1011.60 1011.75 1011.91 1012.04 1012.13 1012.15 1012.09 1011.95 1011.75 1011.48 1011.19 1010.90 1010.63 1010.42 1010.26 1010.15 1010.10 1010.08 1010.07
1009.86 1009.62 1009.33 1008.99 1008.63 1008.27 1007.95 1007.70 1007.54 1007.50 1007.58 1007.78 1008.09 1008.46 1008.88 1009.30 1009.69 1010.03 1010.31 1010.53 1010.69 1010.82 1010.92 1011.03 1011.14 1011.27 1011.40 1011.54 1011.65 1011.71 1011.72 1011.66 1011.53 1011.33 1011.10 1010.84 1010.59 1010.37 1010.20 1010.08 1010.02 1009.99 1009.99 1009.99
1009.56 1009.32 1009.04 1008.72 1008.39 1008.06 1007.77 1007.54 1007.41 1007.39 1007.47 1007.68 1007.97 1008.34 1008.74 1009.14 1009.51 1009.84 1010.11 1010.31 1010.46 1010.57 1010.66 1010.74 1010.84 1010.94 1011.05 1011.16 1011.25 1011.29 1011.29 1011.23 1011.11 1010.94 1010.74 1010.52 1010.33 1010.16 1010.04 1009.97 1009.94 1009.94 1009.96 1009.97
1009.23 1009.01 1008.75 1008.47 1008.17 1007.89 1007.64 1007.45 1007.35 1007.35 1007.45 1007.65 1007.94 1008.29 1008.67 1009.06 1009.41 1009.71 1009.96 1010.14 1010.27 1010.35 1010.42 1010.48 1010.54 1010.62 1010.70 1010.78 1010.84 1010.87 1010.86 1010.80 1010.69 1010.55 1010.39 1010.22 1010.07 1009.95 1009.88 1009.86 1009.88 1009.92 1009.97 1010.00
1008.90 1008.70 1008.47 1008.23 1007.99 1007.75 1007.55 1007.41 1007.34 1007.36 1007.48 1007.69 1007.98 1008.31 1008.68 1009.03 1009.36 1009.64 1009.85 1010.01 1010.10 1010.16 1010.20 1010.22 1010.25 1010.29 1010.33 1010.38 1010.42 1010.43 1010.41 1010.36 1010.27 1010.15 1010.02 1009.89 1009.79 1009.72 1009.70 1009.72 1009.78 1009.86 1009.95 1010.01
1008.58 1008.40 1008.21 1008.00 1007.80 1007.62 1007.46 1007.36 1007.33 1007.39 1007.52 1007.74 1008.03 1008.35 1008.70 1009.03 1009.34 1009.58 1009.77 1009.89 1009.96 1009.98 1009.98 1009.97 1009.96 1009.95 1009.96 1009.98 1009.99 1009.98 1009.96 1009.90 1009.82 1009.72 1009.61 1009.52 1009.45 1009.42 1009.44 1009.50 1009.60 1009.72 1009.84 1009.94
1008.27 1008.10 1007.93 1007.75 1007.59 1007.44 1007.33 1007.27 1007.28 1007.37 1007.53 1007.76 1008.05 1008.38 1008.71 1009.02 1009.30 1009.52 1009.68 1009.77 1009.80 1009.79 1009.76 1009.71 1009.66 1009.62 1009.60 1009.58 1009.56 1009.54 1009.49 1009.43 1009.35 1009.26 1009.17 1009.09 1009.05 1009.04 1009.09 1009.18 1009.31 1009.46 1009.61 1009.73
1007.96 1007.79 1007.63 1007.47 1007.33 1007.21 1007.13 1007.11 1007.15 1007.27 1007.46 1007.71 1008.01 1008.34 1008.67 1008.97 1009.23 1009.43 1009.56 1009.63 1009.63 1009.59 1009.53 1009.45 1009.37 1009.30 1009.24 1009.19 1009.15 1009.10 1009.04 1008.96 1008.88 1008.78 1008.69 1008.62 1008.58 1008.59 1008.64 1008.74 1008.88 1009.04 1009.20 1009.34
1007.66 1007.48 1007.31 1007.15 1007.02 1006.91 1006.86 1006.87 1006.95 1007.10 1007.32 1007.59 1007.91 1008.24 1008.57 1008.86 1009.11 1009.29 1009.41 1009.45 1009.44 1009.38 1009.28 1009.18 1009.08 1008.98 1008.90 1008.83 1008.76 1008.69 1008.61 1008.51 1008.41 1008.30 1008.20 1008.11 1008.07 1008.06 1008.11 1008.20 1008.33 1008.48 1008.64 1008.77
1007.38 1007.18 1006.99 1006.82 1006.68 1006.59 1006.56 1006.59 1006.70 1006.88 1007.12 1007.42 1007.75 1008.09 1008.42 1008.71 1008.94 1009.11 1009.21 1009.24 1009.20 1009.13 1009.02 1008.91 1008.79 1008.67 1008.58 1008.48 1008.39 1008.30 1008.20 1008.08 1007.96 1007.83 1007.71 1007.60 1007.53 1007.50 1007.52 1007.58 1007.68 1007.81 1007.94 1008.04
1007.13 1006.91 1006.71 1006.52 1006.39 1006.30 1006.28 1006.33 1006.46 1006.66 1006.93 1007.24 1007.58 1007.92 1008.23 1008.51 1008.73 1008.88 1008.96 1008.98 1008.93 1008.85 1008.73 1008.61 1008.48 1008.36 1008.25 1008.15 1008.04 1007.94 1007.82 1007.68 1007.54 1007.38 1007.23 1007.10 1006.99 1006.93 1006.91 1006.93 1006.99 1007.07 1007.16 1007.23
1006.95 1006.71 1006.50 1006.31 1006.17 1006.09 1006.08 1006.15 1006.30 1006.51 1006.78 1007.10 1007.43 1007.75 1008.05 1008.30 1008.50 1008.62 1008.68 1008.67 1008.61 1008.52 1008.40 1008.27 1008.14 1008.02 1007.91 1007.80 1007.69 1007.58 1007.44 1007.29 1007.13 1006.95 1006.78 1006.61 1006.47 1006.37 1006.31 1006.28 1006.29 1006.33 1006.37 1006.39
1006.83 1006.59 1006.38 1006.20 1006.07 1006.00 1006.00 1006.08 1006.23 1006.45 1006.71 1007.01 1007.31 1007.61 1007.87 1008.08 1008.23 1008.32 1008.34 1008.31 1008.23 1008.13 1008.01 1007.88 1007.76 1007.65 1007.54 1007.43 1007.33 1007.20 1007.06 1006.90 1006.72 1006.53 1006.33 1006.14 1005.97 1005.84 1005.74 1005.67 1005.64 1005.63 1005.63 1005.61
1006.77 1006.55 1006.35 1006.18 1006.07 1006.01 1006.03 1006.11 1006.26 1006.47 1006.71 1006.97 1007.23 1007.47 1007.68 1007.83 1007.93 1007.97 1007.95 1007.89 1007.79 1007.68 1007.55 1007.43 1007.32 1007.21 1007.12 1007.02 1006.92 1006.80 1006.66 1006.49 1006.30 1006.10 1005.89 1005.68 1005.49 1005.33 1005.21 1005.12 1005.06 1005.02 1004.99 1004.96
1006.73 1006.53 1006.35 1006.21 1006.12 1006.08 1006.11 1006.19 1006.33 1006.51 1006.71 1006.92 1007.13 1007.31 1007.45 1007.54 1007.57 1007.56 1007.50 1007.40 1007.28 1007.16 1007.03 1006.92 1006.82 1006.72 1006.64 1006.55 1006.46 1006.35 1006.21 1006.04 1005.85 1005.64 1005.43 1005.22 1005.02 1004.86 1004.72 1004.63 1004.57 1004.52 1004.50 1004.47
1006.66 1006.49 1006.34 1006.22 1006.15 1006.12 1006.15 1006.23 1006.35 1006.49 1006.66 1006.81 1006.96 1007.07 1007.14 1007.16 1007.14 1007.07 1006.97 1006.85 1006.71 1006.58 1006.46 1006.35 1006.27 1006.19 1006.12 1006.04 1005.96 1005.85 1005.71 1005.55 1005.36 1005.16 1004.95 1004.74 1004.56 1004.40 1004.28 1004.20 1004.16 1004.15 1004.15 1004.16
1006.51 1006.36 1006.23 1006.13 1006.07 1006.06 1006.09 1006.15 1006.25 1006.36 1006.48 1006.58 1006.67 1006.71 1006.72 1006.69 1006.61 1006.51 1006.38 1006.24 1006.10 1005.97 1005.86 1005.76 1005.69 1005.63 1005.57 1005.50 1005.42 1005.32 1005.19 1005.03 1004.85 1004.65 1004.45 1004.26 1004.10 1003.97 1003.88 1003.84 1003.84 1003.88 1003.94 1004.01
1006.24 1006.10 1005.99 1005.90 1005.85 1005.84 1005.86 1005.92 1005.99 1006.07 1006.15 1006.21 1006.24 1006.24 1006.21 1006.13 1006.03 1005.90 1005.76 1005.61 1005.48 1005.36 1005.26 1005.18 1005.12 1005.07 1005.02 1004.96 1004.89 1004.79 1004.66 1004.51 1004.33 1004.15 1003.96 1003.79 1003.66 1003.56 1003.52 1003.53 1003.59 1003.69 1003.82 1003.97
1005.86 1005.73 1005.61 1005.53 1005.49 1005.47 1005.49 1005.53 1005.58 1005.64 1005.69 1005.72 1005.73 1005.70 1005.64 1005.55 1005.43 1005.30 1005.16 1005.02 1004.90 1004.79 1004.71 1004.65 1004.60 1004.56 1004.52 1004.47 1004.39 1004.30 1004.17 1004.02 1003.85 1003.67 1003.51 1003.36 1003.26 1003.20 1003.20 1003.26 1003.38 1003.55 1003.76 1003.99
1005.43 1005.29 1005.17 1005.09 1005.04 1005.02 1005.03 1005.06 1005.11 1005.15 1005.19 1005.21 1005.21 1005.17 1005.11 1005.02 1004.91 1004.78 1004.66 1004.53 1004.43 1004.34 1004.27 1004.22 1004.18 1004.15 1004.11 1004.06 1003.99 1003.89 1003.76 1003.61 1003.45 1003.28 1003.13 1003.01 1002.93 1002.90 1002.94 1003.04 1003.21 1003.44 1003.71 1004.01
Thickness
5754 5760 5761 5761 5763 5765 5764 5768 5768 5775 5778 5783 5785 5784 5785 5784 5785 5785 5785 5786 5786 5786 5786 5787 5787 5788 5788 5787 5787 5785 5781 5778 5775 5773 5770 5767 5765 5763 5762 5760 5759 5756 5755 5754
5736 5748 5750 5748 5755 5758 5759 5762 5764 5766 5769 5782 5780 5778 5775 5774 5774 5773 5774 5775 5776 5777 5778 5778 5779 5779 5779 5779 5779 5777 5774 5772 5770 5767 5765 5762 5760 5758 5755 5754 5752 5751 5749 5748
5725 5737 5735 5733 5748 5751 5752 5757 5757 5754 5762 5768 5765 5763 5762 5764 5764 5763 5764 5765 5765 5767 5769 5770 5771 5772 5771 5771 5770 5768 5766 5764 5763 5761 5758 5756 5755 5751 5748 5746 5745 5743 5742 5740
5716 5716 5706 5737 5751 5749 5745 5748 5751 5752 5754 5756 5756 5756 5757 5758 5756 5754 5755 5755 5756 5757 5759 5761 5764 5764 5764 5763 5761 5759 5757 5756 5755 5753 5751 5749 5747 5744 5742 5740 5738 5736 5735 5734
5704 5706 5715 5727 5735 5736 5732 5734 5743 5742 5743 5746 5749 5746 5746 5749 5748 5747 5747 5747 5747 5749 5750 5750 5752 5752 5752 5752 5751 5750 5748 5747 5747 5745 5742 5740 5738 5735 5734 5732 5730 5728 5728 5726
5692 5689 5696 5716 5726 5730 5724 5718 5733 5733 5731 5733 5733 5729 5735 5739 5738 5737 5738 5738 5739 5740 5740 5739 5740 5741 5740 5740 5740 5739 5739 5738 5737 5736 5734 5732 5730 5728 5726 5724 5722 5721 5719 5718
5683 5684 5700 5709 5715 5715 5699 5706 5718 5722 5722 5721 5719 5723 5727 5728 5727 5727 5728 5728 5729 5729 5729 5728 5729 5730 5729 5729 5729 5730 5730 5729 5727 5726 5725 5724 5722 5720 5717 5715 5713 5710 5708 5709
5675 5673 5683 5698 5701 5696 5697 5703 5707 5709 5711 5711 5711 5715 5715 5715 5714 5715 5716 5717 5717 5716 5716 5717 5719 5718 5718 5717 5718 5719 5719 5718 5716 5716 5716 5716 5713 5710 5708 5706 5703 5701 5699 5699
5674 5676 5681 5686 5687 5689 5692 5692 5695 5698 5701 5701 5701 5702 5703 5703 5703 5704 5704 5704 5705 5704 5704 5705 5707 5706 5705 5706 5707 5707 5706 5706 5705 5704 5703 5703 5702 5700 5698 5696 5694 5693 5693 5693
5661 5669 5673 5676 5678 5680 5681 5681 5686 5689 5691 5692 5691 5691 5692 5691 5691 5691 5692 5692 5693 5692 5691 5692 5694 5694 5694 5695 5695 5695 5694 5693 5693 5692 5691 5690 5690 5690 5689 5688 5686 5685 5684 5683
5650 5657 5660 5665 5667 5668 5670 5673 5676 5678 5681 5681 5681 5680 5679 5678 5678 5679 5680 5680 5680 5680 5680 5680 5682 5682 5683 5683 5683 5682 5682 5682 5682 5682 5681 5679 5678 5677 5678 5676 5676 5673 5674 5673
5644 5649 5649 5652 5656 5659 5659 5662 5664 5666 5668 5670 5670 5669 5669 5668 5667 5667 5668 5669 5668 5669 5670 5671 5671 5671 5672 5672 5672 5671 5671 5671 5672 5672 5671 5670 5668 5666 5662 5661 5659 5658 5658 5657
5639 5643 5644 5646 5648 5650 5651 5653 5655 5656 5657 5658 5660 5660 5659 5658 5657 5657 5656 5657 5658 5658 5659 5660 5660 5660 5660 5660 5661 5661 5660 5659 5660 5660 5660 5660 5659 5656 5653 5649 5646 5645 5644 5643
5634 5634 5635 5637 5639 5642 5643 5644 5646 5647 5648 5649 5649 5648 5648 5647 5647 5646 5646 5647 5648 5649 5649 5649 5649 5649 5649 5650 5649 5649 5649 5649 5647 5648 5649 5648 5648 5647 5645 5643 5641 5638 5633 5630
5628 5629 5629 5631 5633 5633 5635 5636 5636 5636 5637 5637 5638 5637 5637 5636 5636 5636 5637 5637 5637 5638 5639 5639 5639 5639 5639 5639 5639 5639 5640 5640 5639 5639 5638 5638 5637 5636 5635 5633 5631 5629 5627 5623
5622 5623 5624 5624 5624 5625 5627 5627 5627 5627 5627 5627 5627 5627 5627 5628 5627 5627 5627 5627 5627 5628 5629 5630 5630 5631 5631 5631 5631 5631 5631 5629 5628 5629 5628 5627 5626 5625 5624 5623 5621 5620 5618 5616
5614 5614 5616 5616 5618 5619 5620 5620 5620 5620 5619 5618 5618 5618 5618 5618 5617 5617 5618 5619 5619 5620 5621 5621 5622 5623 5624 5625 5625 5625 5624 5623 5619 5619 5619 5618 5617 5616 5615 5613 5612 5611 5609 5607
5611 5611 5612 5611 5612 5612 5612 5613 5613 5612 5611 5611 5611 5611 5611 5610 5609 5609 5610 5611 5611 5613 5614 5615 5616 5616 5617 5617 5618 5619 5618 5617 5615 5614 5612 5610 5609 5608 5608 5606 5604 5602 5600 5598
5606 5606 5606 5606 5606 5606 5606 5606 5606 5606 5605 5604 5604 5604 5604 5604 5603 5603 5604 5604 5605 5605 5606 5608 5606 5609 5610 5610 5609 5609 5609 5608 5607 5605 5604 5600 5600 5600 5599 5598 5596 5594 5593 5591
5600 5601 5601 5601 5601 5600 5600 5600 5600 5599 5599 5599 5598 5597 5597 5596 5596 5596 5597 5598 5598 5599 5600 5600 5602 5603 5603 5602 5601 5603 5601 5600 5598 5596 5595 5594 5593 5591 5590 5589 5588 5587 5585 5583
5594 5595 5595 5596 5596 5595 5596 5596 5595 5594 5594 5594 5593 5592 5591 5591 5591 5592 5592 5592 5592 5592 5593 5592 5595 5596 5596 5594 5592 5594 5593 5591 5589 5587 5585 5584 5583 5581 5580 5580 5579 5578 5576 5574
5589 5590 5590 5591 5591 5590 5591 5592 5591 5589 5589 5588 5588 5587 5587 5586 5587 5587 5587 5586 5586 5584 5587 5589 5589 5586 5586 5584 5587 5586 5585 5583 5582 5580 5577 5575 5574 5572 5572 5571 5570 5569 5567 5565
5585 5585 5585 5586 5586 5586 5587 5587 5586 5585 5584 5583 5583 5583 5583 5583 5585 5584 5582 5582 5582 5579 5581 5581 5577 5575 5574 5577 5578 5578 5577 5575 5574 5573 5571 5568 5567 5565 5565 5564 5563 5561 5559 5557
5581 5581 5581 5581 5582 5581 5581 5582 5581 5581 5581 5580 5580 5581 5580 5581 5580 5580 5578 5574 5572 5572 5574 5570 5567 5567 5566 5572 5572 5571 5570 5568 5567 5566 5564 5562 5561 5559 5557 5556 5555 5553 5551 5549
5577 5577 5578 5578 5577 5578 5577 5577 5577 5577 5578 5578 5579 5578 5579 5578 5576 5576 5574 5571 5567 5567 5568 5564 5561 5561 5564 5567 5566 5564 5562 5561 5559 5558 5557 5555 5554 5552 5550 5548 5546 5544 5542 5541
5574 5575 5575 5574 5574 5575 5576 5576 5575 5575 5575 5575 5575 5575 5575 5573 5572 5571 5568 5567 5565 5562 5563 5563 5561 5558 5560 5560 5559 5557 5555 5553 5552 5551 5550 5548 5546 5544 5543 5541 5538 5536 5534 5532
5574 5573 5572 5573 5574 5573 5574 5573 5571 5571 5572 5571 5570 5570 5570 5569 5568 5567 5565 5564 5563 5561 5560 5559 5558 5556 5555 5554 5552 5550 5550 5548 5546 5545 5544 5542 5539 5537 5535 5532 5530 5528 5525 5523